This is the latest recevied weather packets stored in our database for station/object G0TRT-13. If no packets are shown the sender has not sent any weather packets the latest 10 day(s).
| Time | Temp. | Humidity | Pressure | Rain* | Wind** | Luminosity | Snow |
|---|---|---|---|---|---|---|---|
| 1778108107 | 5.56° C | 79% | 1015 hPa | 0 mm | - | - | - |
| 1778107807 | 5.56° C | 79% | 1014.9 hPa | 0 mm | - | - | - |
| 1778107506 | 5.56° C | 78% | 1015 hPa | 0 mm | - | - | - |
| 1778107206 | 5.56° C | 78% | 1015 hPa | 0 mm | - | - | - |
| 1778106904 | 6.11° C | 78% | 1014.9 hPa | 0 mm | - | - | - |
| 1778106598 | 6.11° C | 77% | 1014.8 hPa | 0 mm | - | - | - |
| 1778106294 | 6.11° C | 77% | 1014.8 hPa | 0 mm | - | - | - |
| 1778105994 | 6.11° C | 77% | 1014.6 hPa | 0 mm | - | - | - |
| 1778105694 | 6.67° C | 77% | 1014.7 hPa | 0 mm | - | - | - |
| 1778105394 | 6.67° C | 77% | 1014.6 hPa | 0 mm | - | - | - |
| 1778105090 | 6.67° C | 77% | 1014.6 hPa | 0 mm | - | - | - |
| 1778104790 | 6.67° C | 77% | 1014.6 hPa | 0 mm | - | - | - |
| 1778104488 | 6.11° C | 77% | 1014.6 hPa | 0 mm | - | - | - |
| 1778104188 | 6.11° C | 75% | 1014.7 hPa | 0 mm | - | - | - |
| 1778103888 | 6.67° C | 75% | 1014.6 hPa | 0 mm | - | - | - |
| 1778103586 | 6.67° C | 74% | 1014.6 hPa | 0 mm | - | - | - |
| 1778103283 | 6.67° C | 73% | 1014.6 hPa | 0 mm | - | - | - |
| 1778102982 | 7.22° C | 72% | 1014.6 hPa | 0 mm | - | - | - |
| 1778102680 | 7.22° C | 72% | 1014.7 hPa | 0 mm | - | - | - |
| 1778102378 | 7.78° C | 72% | 1014.6 hPa | 0 mm | - | - | - |
| 1778102076 | 7.78° C | 72% | 1014.5 hPa | 0 mm | - | - | - |
| 1778101772 | 7.78° C | 71% | 1014.6 hPa | 0 mm | - | - | - |
| 1778101472 | 8.33° C | 71% | 1014.4 hPa | 0 mm | - | - | - |
| 1778101172 | 8.33° C | 71% | 1014.6 hPa | 0 mm | - | - | - |
| 1778100871 | 8.33° C | 70% | 1014.4 hPa | 0 mm | - | - | - |
* Rain latest hour (hover to see other rain measurements)
** Current wind speed in m/s (hover to see current wind gust speed)